| time (UTC) | temp C | wind direction | speed KPH | gust KPH | rain 1hr cm | rain 24hr cm | rain mn cm | humidity % | barometer mb |
| 20260502180508 | 22 | 42 | 4.8 | 19.3 | 0.00 | 1.93 | 0.00 | 54 | 1019.8 |
| 20260502170504 | 21 | 34 | 17.7 | 19.3 | 0.00 | 2.01 | 0.00 | 60 | 1020.3 |
| 20260502164005 | 21 | 346 | 3.2 | 17.7 | 0.00 | 2.26 | 0.00 | 61 | 1020.4 |
| 20260502163004 | 20 | 346 | 9.7 | 19.3 | 0.00 | 2.26 | 0.00 | 61 | 1020.4 |
| 20260502162005 | 20 | 9 | 8.0 | 19.3 | 0.00 | 2.26 | 0.00 | 65 | 1020.3 |
| 20260502161504 | 20 | 41 | 1.6 | 19.3 | 0.00 | 2.26 | 0.00 | 62 | 1020.4 |
| 20260502161004 | 20 | 305 | 6.4 | 16.1 | 0.00 | 2.26 | 0.00 | 64 | 1020.3 |
| 20260502160503 | 20 | 27 | 3.2 | 16.1 | 0.00 | 2.26 | 0.00 | 65 | 1020.3 |
| 20260502152006 | 18 | 53 | 9.7 | 25.7 | 0.00 | 2.49 | 0.00 | 72 | 1020.1 |
| 20260502151506 | 18 | 63 | 8.0 | 25.7 | 0.00 | 2.49 | 0.00 | 74 | 1020.1 |
| 20260502151005 | 18 | 292 | 3.2 | 16.1 | 0.00 | 2.49 | 0.00 | 74 | 1020.2 |
| 20260502150505 | 17 | 336 | 8.0 | 17.7 | 0.00 | 2.49 | 0.00 | 75 | 1020.3 |
| 20260502130503 | 12 | 318 | 1.6 | 8.0 | 0.00 | 3.71 | 0.00 | 92 | 1018.8 |
| 20260502123505 | 11 | 343 | 0.0 | 8.0 | 0.00 | 5.08 | 0.00 | 92 | 1018.3 |
| 20260502123006 | 11 | 344 | 3.2 | 8.0 | 0.00 | 5.08 | 0.00 | 92 | 1018.3 |
| 20260502122506 | 11 | 344 | 4.8 | 8.0 | 0.00 | 5.08 | 0.00 | 92 | 1018.2 |
| 20260502121505 | 11 | 355 | 3.2 | 8.0 | 0.00 | 5.08 | 0.00 | 92 | 1018.0 |
| 20260502121006 | 11 | 360 | 3.2 | 6.4 | 0.00 | 5.08 | 0.00 | 92 | 1018.0 |
| 20260502120506 | 11 | 332 | 1.6 | 6.4 | 0.00 | 5.08 | 0.00 | 92 | 1018.0 |
| 20260502115008 | 10 | 342 | 0.0 | 8.0 | 0.00 | 5.44 | 0.00 | 92 | 1017.8 |
| 20260502114006 | 10 | 341 | 1.6 | 8.0 | 0.00 | 5.44 | 0.00 | 92 | 1017.7 |
| 20260502113505 | 10 | 342 | 4.8 | 6.4 | 0.00 | 5.44 | 0.00 | 92 | 1017.7 |
| 20260502113006 | 10 | 342 | 0.0 | 6.4 | 0.00 | 5.44 | 0.00 | 92 | 1017.7 |
| 20260502112005 | 11 | 342 | 1.6 | 6.4 | 0.00 | 5.44 | 0.00 | 92 | 1017.7 |
| 20260502111505 | 11 | 343 | 0.0 | 3.2 | 0.00 | 5.44 | 0.00 | 92 | 1017.5 |
| 20260502111006 | 11 | 343 | 3.2 | 9.7 | 0.00 | 5.44 | 0.00 | 92 | 1017.5 |
| 20260502110506 | 11 | 342 | 3.2 | 4.8 | 0.00 | 5.44 | 0.00 | 92 | 1017.4 |
| 20260502110007 | 11 | 342 | 1.6 | 6.4 | 0.00 | 5.44 | 0.00 | 92 | 1017.3 |
| 20260502105507 | 11 | 342 | 3.2 | 6.4 | 0.00 | 5.69 | 0.00 | 92 | 1017.3 |
| 20260502105006 | 11 | 342 | 3.2 | 8.0 | 0.00 | 5.69 | 0.00 | 92 | 1017.3 |
| 20260502104506 | 11 | 342 | 1.6 | 8.0 | 0.00 | 5.69 | 0.00 | 92 | 1017.3 |
| 20260502104005 | 11 | 342 | 0.0 | 8.0 | 0.00 | 5.69 | 0.00 | 92 | 1017.2 |
| 20260502103505 | 11 | 342 | 3.2 | 8.0 | 0.00 | 5.69 | 0.00 | 92 | 1017.1 |
| 20260502102506 | 11 | 340 | 1.6 | 8.0 | 0.00 | 5.69 | 0.00 | 92 | 1017.0 |
| 20260502102005 | 11 | 340 | 4.8 | 9.7 | 0.00 | 5.69 | 0.00 | 92 | 1017.0 |
| 20260502101505 | 11 | 339 | 1.6 | 9.7 | 0.00 | 5.69 | 0.00 | 92 | 1016.9 |
| 20260502101010 | 11 | 340 | 3.2 | 8.0 | 0.00 | 5.69 | 0.00 | 92 | 1016.8 |
| 20260502100506 | 11 | 350 | 4.8 | 6.4 | 0.00 | 5.69 | 0.00 | 92 | 1016.8 |
| 20260502091504 | 11 | 355 | 1.6 | 3.2 | 0.00 | 6.30 | 0.00 | 91 | 1015.8 |
| 20260502090506 | 11 | 355 | 1.6 | 4.8 | 0.00 | 6.30 | 0.00 | 91 | 1015.6 |
| 20260502071504 | 12 | 31 | 3.2 | 8.0 | 0.00 | 7.11 | 0.00 | 91 | 1015.7 |
| 20260502071005 | 12 | 31 | 1.6 | 8.0 | 0.00 | 7.11 | 0.00 | 91 | 1015.7 |
| 20260502070505 | 12 | 355 | 1.6 | 8.0 | 0.00 | 7.11 | 0.00 | 91 | 1015.7 |
| 20260502070007 | 12 | 341 | 6.4 | 12.9 | 0.00 | 7.11 | 0.00 | 92 | 1015.7 |
| 20260502065504 | 12 | 5 | 3.2 | 12.9 | 0.00 | 7.16 | 0.00 | 92 | 1015.6 |
| 20260502064506 | 12 | 336 | 3.2 | 12.9 | 0.00 | 7.16 | 0.00 | 92 | 1015.5 |
| 20260502064004 | 12 | 24 | 3.2 | 12.9 | 0.00 | 7.16 | 0.00 | 92 | 1015.6 |
| 20260502063504 | 12 | 355 | 3.2 | 6.4 | 0.00 | 7.16 | 0.00 | 92 | 1015.5 |
| 20260502063005 | 12 | 355 | 1.6 | 14.5 | 0.00 | 7.16 | 0.00 | 92 | 1015.3 |
| 20260502062506 | 12 | 26 | 4.8 | 14.5 | 0.00 | 7.16 | 0.00 | 92 | 1015.5 |
| 20260502060007 | 12 | 29 | 4.8 | 16.1 | 0.00 | 7.16 | 0.00 | 92 | 1015.4 |
| 20260502055504 | 12 | 17 | 4.8 | 9.7 | 0.00 | 7.32 | 0.00 | 93 | 1015.4 |
| 20260502055005 | 12 | 360 | 1.6 | 11.3 | 0.00 | 7.32 | 0.00 | 93 | 1015.4 |
| 20260502054505 | 12 | 26 | 6.4 | 11.3 | 0.00 | 7.32 | 0.00 | 93 | 1015.3 |
| 20260502054005 | 12 | 349 | 3.2 | 16.1 | 0.00 | 7.32 | 0.00 | 93 | 1015.3 |
| 20260502053504 | 12 | 38 | 8.0 | 16.1 | 0.00 | 7.32 | 0.00 | 93 | 1015.3 |
| 20260502053005 | 12 | 55 | 9.7 | 16.1 | 0.00 | 7.32 | 0.00 | 93 | 1015.4 |
| 20260502052504 | 12 | 57 | 6.4 | 17.7 | 0.00 | 7.32 | 0.00 | 93 | 1015.4 |
| 20260502052004 | 12 | 306 | 3.2 | 17.7 | 0.00 | 7.32 | 0.00 | 93 | 1015.5 |
| 20260502051504 | 12 | 51 | 6.4 | 16.1 | 0.00 | 7.32 | 0.00 | 93 | 1015.4 |
| 20260502050505 | 12 | 39 | 8.0 | 20.9 | 0.00 | 7.32 | 0.00 | 93 | 1015.4 |
| 20260502050007 | 12 | 47 | 4.8 | 19.3 | 0.00 | 7.32 | 0.00 | 93 | 1015.4 |
| 20260502045506 | 12 | 315 | 1.6 | 14.5 | 0.00 | 7.32 | 7.32 | 93 | 1015.4 |
| 20260502045006 | 12 | 5 | 6.4 | 11.3 | 0.00 | 7.32 | 7.32 | 93 | 1015.4 |
| 20260502044506 | 12 | 20 | 12.9 | 14.5 | 0.00 | 7.32 | 7.32 | 93 | 1015.4 |
| 20260502044006 | 12 | 18 | 1.6 | 16.1 | 0.00 | 7.32 | 7.32 | 93 | 1015.2 |
| 20260502043505 | 12 | 28 | 3.2 | 20.9 | 0.00 | 7.32 | 7.32 | 93 | 1015.1 |
| 20260502043006 | 12 | 22 | 1.6 | 20.9 | 0.00 | 7.32 | 7.32 | 93 | 1015.0 |
| 20260502042507 | 13 | 19 | 6.4 | 16.1 | 0.00 | 7.32 | 7.32 | 93 | 1015.1 |
| 20260502042006 | 13 | 335 | 6.4 | 14.5 | 0.00 | 7.32 | 7.32 | 93 | 1015.3 |
| 20260502041505 | 13 | 5 | 4.8 | 9.7 | 0.00 | 7.32 | 7.32 | 93 | 1015.4 |
| 20260502041010 | 13 | 355 | 1.6 | 17.7 | 0.00 | 7.32 | 7.32 | 93 | 1015.5 |
| 20260502040507 | 13 | 355 | 1.6 | 17.7 | 0.00 | 7.32 | 7.32 | 93 | 1015.5 |
| 20260502040008 | 13 | 327 | 6.4 | 17.7 | 0.00 | 7.32 | 7.32 | 93 | 1015.4 |
| 20260502035505 | 13 | 351 | 3.2 | 17.7 | 0.00 | 7.32 | 7.32 | 93 | 1015.4 |
| 20260502035006 | 13 | 337 | 3.2 | 12.9 | 0.00 | 7.32 | 7.32 | 93 | 1015.3 |
| 20260502034507 | 13 | 340 | 4.8 | 12.9 | 0.00 | 7.32 | 7.32 | 93 | 1015.2 |
| 20260502033006 | 13 | 349 | 3.2 | 9.7 | 0.00 | 7.32 | 7.32 | 93 | 1015.2 |
| 20260502032505 | 13 | 340 | 1.6 | 16.1 | 0.00 | 7.32 | 7.32 | 93 | 1015.1 |
| 20260502032008 | 13 | 10 | 1.6 | 16.1 | 0.03 | 7.32 | 7.32 | 93 | 1015.0 |
| 20260502031506 | 13 | 338 | 3.2 | 16.1 | 0.05 | 7.32 | 7.32 | 93 | 1014.9 |
| 20260502031006 | 13 | 27 | 4.8 | 16.1 | 0.05 | 7.32 | 7.32 | 93 | 1014.8 |
| 20260502030506 | 13 | 45 | 9.7 | 9.7 | 0.08 | 7.32 | 7.32 | 93 | 1014.7 |
| 20260502030008 | 13 | 313 | 6.4 | 11.3 | 0.10 | 7.32 | 7.32 | 93 | 1014.5 |
| 20260502025505 | 13 | 351 | 1.6 | 16.1 | 0.15 | 7.32 | 7.32 | 93 | 1014.2 |
| 20260502024506 | 13 | 9 | 3.2 | 9.7 | 0.20 | 7.32 | 7.32 | 93 | 1014.1 |
| 20260502024028 | 13 | 16 | 3.2 | 9.7 | 0.23 | 7.32 | 7.32 | 93 | 1014.2 |
| 20260502023529 | 13 | 302 | 1.6 | 11.3 | 0.30 | 7.32 | 7.32 | 93 | 1014.3 |
| 20260502023043 | 13 | 319 | 4.8 | 16.1 | 0.36 | 7.32 | 7.32 | 93 | 1014.2 |
| 20260502022517 | 13 | 299 | 4.8 | 16.1 | 0.38 | 7.32 | 7.32 | 93 | 1013.8 |
| 20260502022024 | 13 | 350 | 1.6 | 9.7 | 0.38 | 7.29 | 7.29 | 93 | 1013.9 |
| 20260502021519 | 13 | 348 | 3.2 | 12.9 | 0.36 | 7.26 | 7.26 | 93 | 1014.1 |
| 20260502021045 | 13 | 41 | 6.4 | 12.9 | 0.38 | 7.26 | 7.26 | 93 | 1013.9 |
| 20260502020531 | 13 | 336 | 6.4 | 14.5 | 0.36 | 7.24 | 7.24 | 93 | 1013.9 |
| 20260502020036 | 13 | 355 | 3.2 | 14.5 | 0.36 | 7.21 | 7.21 | 93 | 1013.9 |
| 20260502015522 | 13 | 5 | 4.8 | 19.3 | 0.33 | 7.19 | 7.19 | 93 | 1013.7 |
| 20260502015010 | 13 | 360 | 1.6 | 19.3 | 0.28 | 7.14 | 7.14 | 93 | 1013.5 |
| 20260502014009 | 13 | 327 | 6.4 | 19.3 | 0.25 | 7.09 | 7.09 | 93 | 1013.4 |
| 20260502013526 | 13 | 355 | 3.2 | 14.5 | 0.20 | 7.01 | 7.01 | 93 | 1012.9 |
| 20260502013026 | 13 | 336 | 4.8 | 12.9 | 0.18 | 6.99 | 6.99 | 93 | 1013.2 |
| 20260502012525 | 13 | 338 | 3.2 | 12.9 | 0.18 | 6.96 | 6.96 | 93 | 1013.5 |
| 20260502012050 | 13 | 315 | 0.0 | 12.9 | 0.18 | 6.93 | 6.93 | 93 | 1013.7 |
| 20260502011049 | 13 | 22 | 6.4 | 11.3 | 0.15 | 6.88 | 6.88 | 93 | 1013.7 |
| 20260502010538 | 13 | 316 | 0.0 | 22.5 | 0.18 | 6.88 | 6.88 | 93 | 1012.8 |
| 20260502010039 | 13 | 5 | 3.2 | 22.5 | 0.18 | 6.86 | 6.86 | 93 | 1012.3 |
| 20260502005511 | 13 | 77 | 8.0 | 22.5 | 0.20 | 6.86 | 6.86 | 93 | 1011.9 |
| 20260502004514 | 14 | 19 | 8.0 | 16.1 | 0.23 | 6.83 | 6.83 | 93 | 1012.1 |
| 20260502004025 | 15 | 22 | 6.4 | 16.1 | 0.23 | 6.83 | 6.83 | 93 | 1012.4 |
| 20260502003536 | 15 | 300 | 3.2 | 12.9 | 0.20 | 6.81 | 6.81 | 93 | 1012.6 |
| 20260502003038 | 15 | 336 | 3.2 | 8.0 | 0.23 | 6.81 | 6.81 | 93 | 1012.7 |
| 20260502002530 | 15 | 341 | 3.2 | 6.4 | 0.23 | 6.78 | 6.78 | 93 | 1012.3 |
| 20260502001528 | 14 | 338 | 8.0 | 8.0 | 0.33 | 6.76 | 6.76 | 93 | 1012.4 |
| 20260502001051 | 14 | 12 | 3.2 | 6.4 | 0.43 | 6.73 | 6.73 | 93 | 1012.3 |
| 20260502000514 | 14 | 11 | 1.6 | 9.7 | 0.53 | 6.71 | 6.71 | 93 | 1011.8 |
| 20260502000030 | 14 | 350 | 4.8 | 9.7 | 0.53 | 6.68 | 6.68 | 93 | 1011.6 |
| 20260501235025 | 14 | 30 | 3.2 | 16.1 | 0.48 | 6.63 | 6.63 | 93 | 1011.8 |
| 20260501234518 | 14 | 55 | 3.2 | 16.1 | 0.46 | 6.60 | 6.60 | 93 | 1011.8 |
| 20260501234030 | 15 | 61 | 1.6 | 14.5 | 0.46 | 6.60 | 6.60 | 93 | 1011.6 |
| 20260501233506 | 15 | 15 | 3.2 | 14.5 | 0.46 | 6.60 | 6.60 | 93 | 1011.6 |
| 20260501233019 | 15 | 79 | 8.0 | 9.7 | 0.43 | 6.58 | 6.58 | 93 | 1011.4 |
| 20260501232531 | 15 | 348 | 1.6 | 9.7 | 0.41 | 6.55 | 6.55 | 93 | 1011.5 |
| 20260501232028 | 15 | 67 | 4.8 | 12.9 | 0.38 | 6.53 | 6.53 | 93 | 1011.6 |
| 20260501231015 | 15 | 5 | 9.7 | 12.9 | 0.20 | 6.32 | 6.32 | 93 | 1011.3 |
| 20260501225506 | 15 | 330 | 6.4 | 24.1 | 0.10 | 6.15 | 6.15 | 93 | 1010.8 |
| 20260501225018 | 15 | 71 | 8.0 | 24.1 | 0.13 | 6.15 | 6.15 | 93 | 1009.7 |
| 20260501224544 | 15 | 86 | 4.8 | 14.5 | 0.15 | 6.15 | 6.15 | 93 | 1009.6 |
| 20260501224019 | 15 | 84 | 3.2 | 19.3 | 0.15 | 6.15 | 6.15 | 93 | 1009.8 |
| 20260501223525 | 15 | 53 | 6.4 | 19.3 | 0.15 | 6.15 | 6.15 | 94 | 1009.7 |
| 20260501223026 | 15 | 103 | 4.8 | 20.9 | 0.15 | 6.15 | 6.15 | 94 | 1009.9 |
| 20260501222526 | 15 | 17 | 11.3 | 20.9 | 0.15 | 6.15 | 6.15 | 93 | 1009.7 |
| 20260501222026 | 15 | 59 | 6.4 | 14.5 | 0.15 | 6.15 | 6.15 | 93 | 1010.0 |
| 20260501221509 | 15 | 28 | 4.8 | 14.5 | 0.18 | 6.15 | 6.15 | 94 | 1010.8 |
| 20260501221018 | 15 | 350 | 4.8 | 17.7 | 0.15 | 6.12 | 6.12 | 93 | 1011.3 |
| 20260501220520 | 15 | 35 | 6.4 | 17.7 | 0.18 | 6.12 | 6.12 | 93 | 1011.7 |
| 20260501215523 | 15 | 25 | 4.8 | 17.7 | 0.18 | 6.07 | 6.07 | 93 | 1011.4 |
| 20260501215022 | 15 | 5 | 8.0 | 17.7 | 0.15 | 6.05 | 6.05 | 93 | 1011.7 |
| 20260501214520 | 15 | 15 | 4.8 | 14.5 | 0.15 | 6.02 | 6.02 | 94 | 1011.4 |
| 20260501214010 | 15 | 355 | 3.2 | 9.7 | 0.15 | 5.99 | 5.99 | 94 | 1011.3 |
| 20260501213525 | 15 | 17 | 3.2 | 9.7 | 0.18 | 5.99 | 5.99 | 94 | 1011.4 |
| 20260501212520 | 15 | 338 | 4.8 | 14.5 | 0.25 | 5.99 | 5.99 | 94 | 1011.0 |
| 20260501212025 | 15 | 355 | 1.6 | 12.9 | 0.28 | 5.99 | 5.99 | 94 | 1010.3 |
| 20260501211510 | 15 | 342 | 9.7 | 14.5 | 0.30 | 5.99 | 5.99 | 94 | 1009.9 |
| 20260501211021 | 15 | 336 | 6.4 | 14.5 | 0.28 | 5.97 | 5.97 | 94 | 1009.6 |
| 20260501210600 | 16 | 355 | 3.2 | 8.0 | 0.25 | 5.94 | 5.94 | 94 | 1009.3 |
| 20260501210015 | 16 | 339 | 4.8 | 8.0 | 0.25 | 5.94 | 5.94 | 94 | 1009.5 |
| 20260501205511 | 16 | 350 | 1.6 | 9.7 | 0.23 | 5.92 | 5.92 | 94 | 1010.3 |
| 20260501205015 | 16 | 348 | 1.6 | 12.9 | 0.20 | 5.89 | 5.89 | 94 | 1010.9 |
| 20260501204023 | 16 | 34 | 3.2 | 19.3 | 0.15 | 5.84 | 5.84 | 94 | 1009.8 |
| 20260501203024 | 16 | 355 | 3.2 | 20.9 | 0.13 | 5.82 | 5.82 | 94 | 1009.8 |
| 20260501202520 | 16 | 11 | 6.4 | 14.5 | 0.10 | 5.77 | 5.77 | 94 | 1009.5 |
| 20260501202014 | 16 | 321 | 4.8 | 16.1 | 0.08 | 5.74 | 5.74 | 94 | 1010.1 |
| 20260501201530 | 16 | 26 | 8.0 | 17.7 | 0.05 | 5.71 | 5.71 | 94 | 1009.8 |
| 20260501200523 | 16 | 282 | 6.4 | 14.5 | 0.05 | 5.69 | 5.69 | 94 | 1010.0 |
| 20260501200009 | 16 | 355 | 4.8 | 14.5 | 0.10 | 5.69 | 5.69 | 94 | 1009.8 |
| 20260501195513 | 16 | 325 | 12.9 | 12.9 | 0.15 | 5.69 | 5.69 | 94 | 1009.6 |
| 20260501195020 | 16 | 5 | 6.4 | 9.7 | 0.18 | 5.69 | 5.69 | 94 | 1010.0 |
| 20260501194522 | 16 | 17 | 6.4 | 12.9 | 0.20 | 5.69 | 5.69 | 94 | 1009.6 |
| 20260501194011 | 16 | 40 | 3.2 | 16.1 | 0.20 | 5.69 | 5.69 | 94 | 1009.5 |
| 20260501193019 | 16 | 344 | 0.0 | 9.7 | 0.28 | 5.69 | 5.69 | 94 | 1009.3 |
| 20260501192514 | 16 | 14 | 6.4 | 9.7 | 0.25 | 5.66 | 5.66 | 94 | 1009.0 |
| 20260501191508 | 16 | 82 | 1.6 | 9.7 | 0.25 | 5.66 | 5.66 | 94 | 1009.7 |
| 20260501191030 | 16 | 86 | 6.4 | 9.7 | 0.28 | 5.66 | 5.66 | 94 | 1008.9 |
| 20260501190514 | 16 | 53 | 3.2 | 6.4 | 0.25 | 5.64 | 5.64 | 94 | 1008.8 |
| 20260501190025 | 16 | 53 | 0.0 | 6.4 | 0.20 | 5.59 | 5.59 | 94 | 1009.1 |
| 20260501185530 | 16 | 54 | 4.8 | 9.7 | 0.20 | 5.56 | 5.56 | 94 | 1009.3 |
| 20260501185024 | 16 | 302 | 3.2 | 4.8 | 0.18 | 5.54 | 5.54 | 94 | 1009.3 |
| 20260501184528 | 16 | 302 | 3.2 | 4.8 | 0.18 | 5.51 | 5.51 | 94 | 1009.8 |
| 20260501184025 | 16 | 302 | 0.0 | 16.1 | 0.15 | 5.49 | 5.49 | 94 | 1009.7 |
| 20260501183524 | 16 | 302 | 4.8 | 19.3 | 0.13 | 5.46 | 5.46 | 94 | 1009.5 |
| 20260501182531 | 16 | 94 | 14.5 | 17.7 | 0.08 | 5.41 | 5.41 | 94 | 1007.4 |
| 20260501182028 | 16 | 18 | 4.8 | 16.1 | 0.08 | 5.41 | 5.41 | 94 | 1008.4 |
| 20260501181030 | 16 | 90 | 4.8 | 16.1 | 0.10 | 5.41 | 5.41 | 94 | 1008.1 |